Location: Newark
(13.9670°N, 101.5170°E)
Time: 18:01:23
(UTC+00:00)

Envisat - Visible Passes

Search period start: 20 July 2019 00:00
Search period end: 30 July 2019 00:00
Orbit: 764 x 766 km, 98.1° (Epoch: 20 July)

Date Brightness Start Highest point End Pass type
(mag) Time Alt. Az. Time Alt. Az. Time Alt. Az.
20 Jul 5.1 12:37:05 10° SSW 12:41:16 26° W 12:45:28 10° NW visible
21 Jul 3.3 11:59:29 10° S 12:04:33 74° WSW 12:09:37 10° NNW visible
22 Jul 5.8 13:04:41 10° WSW 13:06:49 13° W 13:08:57 10° WNW visible
23 Jul 4.6 12:25:26 10° SSW 12:30:02 35° W 12:34:39 10° NW visible
25 Jul 5.7 12:52:16 10° SW 12:55:33 17° W 12:58:51 10° WNW visible
26 Jul 4.1 12:13:56 10° S 12:18:48 48° W 12:23:40 10° NNW visible
28 Jul 5.3 12:40:19 10° SSW 12:44:18 23° W 12:48:18 10° NW visible
29 Jul 3.5 12:02:33 10° S 12:07:34 66° WSW 12:12:36 10° NNW visible
